"Pseudo-MPEC" for P10PJG0

Created 2019 Jul 18 21:07:02 UT using Find_Orb

Click here for an explanation of pseudo-MPECs

 
 Astrometry: 
     P10PJG0  C2019 07 07g$VhUa+E4Hx_w!8U%1hg2C8j]N]J,mlbTw-Cy_Astrometry(Qb]F51
     P10PJG0  C2019 07 07iqc_(+M\rJ8d:ulQyyredacted;Dclickk;hereSBvBaXs#OYWOnF51
     P10PJG0  C2019 07 076y,m\GE[FC';PIqkX_6U[e47vRfjC?Qw23D1nDUO_+yV2DiK=%RDF51
     P10PJG0  C2019 07 07ni@/1wNu:Ofor?Lwd[M#explanation@4,$#WA\7M+F`%1]SMXnRF51

Station data:
(F51) Pan-STARRS 1, Haleakala  (N20.707235 W156.255910)  US/Hawaii.
   Observers N. Primak, A. Schultz, S. Watters, J. Thiel, T. Goggia. Measurer
   PS1 Science Consortium. 1.8-m Ritchey-Chrétien + CCD.

Orbital elements:  P10PJG0
   Perihelion 2019 Feb 3.121850 +/- 104 TT =  2:55:27 (JD 2458517.621850)
Epoch 2019 Jul  8.0 TT = JDT 2458672.5   Earth MOID: 0.0012   Ve: 0.0278
M 175.09188036 +/- 120              (J2000 ecliptic)          AutoNEOCP
n   1.13051376 +/- 0.632            Peri.  218.75381 +/- 70
a   0.91261053 +/- 0.34             Node   252.13543 +/- 70
e   0.1918607 +/- 0.226             Incl.    0.48306 +/- 70
P   0.87/318.43d           H 26.1   G  0.15   U 12.4  SR
q 0.73751643 +/- 0.55    Q 1.08770464 +/- 13.9
From 4 observations 2019 July 7 (47.7 min); mean residual 0".19
Residuals in arcseconds: 
190707 F51  .26+  .13+    190707 F51  .04-  .13-    
190707 F51  .38-  .13-    190707 F51  .15+  .13+    

Ephemerides (geocentric):
Date (UTC) HH   RA              Dec         delta   r     elong  mag " sig PA
---- -- -- --  -------------   -----------  ------ ------ -----  --- ---- ---
2019 07 18 21  20 05 54.765   -15 04 26.32  .07088 1.0867 173.1 21.0  47d   9
2019 07 18 22  20 05 37.794   -15 05 02.26  .07086 1.0867 173.1 21.0  47d   9
2019 07 18 23  20 05 20.811   -15 05 38.16  .07084 1.0866 173.2 21.0  47d   9
2019 07 19 00  20 05 03.814   -15 06 14.03  .07082 1.0866 173.3 21.0  47d   9
2019 07 19 01  20 04 46.806   -15 06 49.87  .07079 1.0866 173.3 21.0  47d   9
2019 07 19 02  20 04 29.785   -15 07 25.68  .07078 1.0866 173.4 21.0  47d   9
2019 07 19 03  20 04 12.751   -15 08 01.45  .07076 1.0866 173.5 21.0  47d   9
2019 07 19 04  20 03 55.706   -15 08 37.19  .07074 1.0866 173.5 21.0  47d   9
2019 07 19 05  20 03 38.648   -15 09 12.90  .07072 1.0866 173.6 21.0  47d   9
2019 07 19 06  20 03 21.579   -15 09 48.57  .07070 1.0866 173.6 21.0  47d   9
2019 07 19 07  20 03 04.497   -15 10 24.21  .07068 1.0865 173.7 20.9  47d   9
2019 07 19 08  20 02 47.404   -15 10 59.81  .07066 1.0865 173.8 20.9  47d   9
2019 07 19 09  20 02 30.299   -15 11 35.37  .07064 1.0865 173.8 20.9  47d   9
2019 07 19 10  20 02 13.183   -15 12 10.90  .07062 1.0865 173.9 20.9  47d   9
2019 07 19 11  20 01 56.055   -15 12 46.40  .07060 1.0865 173.9 20.9  47d   9
2019 07 19 12  20 01 38.915   -15 13 21.86  .07059 1.0865 174.0 20.9  47d   9
2019 07 19 13  20 01 21.765   -15 13 57.27  .07057 1.0865 174.0 20.9  47d   9
2019 07 19 14  20 01 04.603   -15 14 32.66  .07055 1.0864 174.1 20.9  47d   9
2019 07 19 15  20 00 47.430   -15 15 08.00  .07053 1.0864 174.1 20.9  47d   9
2019 07 19 16  20 00 30.246   -15 15 43.31  .07051 1.0864 174.2 20.9  47d   9
2019 07 19 17  20 00 13.051   -15 16 18.57  .07050 1.0864 174.2 20.9  47d   9
2019 07 19 18  19 59 55.845   -15 16 53.80  .07048 1.0864 174.3 20.9  47d   9
2019 07 19 19  19 59 38.628   -15 17 28.99  .07046 1.0864 174.3 20.9  47d   9
2019 07 19 20  19 59 21.401   -15 18 04.14  .07045 1.0863 174.4 20.9  47d   9
2019 07 19 21  19 59 04.164   -15 18 39.24  .07043 1.0863 174.4 20.9  47d   9
2019 07 19 22  19 58 46.916   -15 19 14.31  .07041 1.0863 174.4 20.9  47d   9
2019 07 19 23  19 58 29.658   -15 19 49.34  .07040 1.0863 174.5 20.9  47d   9
2019 07 20 00  19 58 12.390   -15 20 24.32  .07038 1.0863 174.5 20.9  48d   9
2019 07 20 01  19 57 55.111   -15 20 59.26  .07036 1.0863 174.5 20.9  48d   9
2019 07 20 02  19 57 37.823   -15 21 34.16  .07035 1.0863 174.5 20.9  48d   9
2019 07 20 03  19 57 20.524   -15 22 09.02  .07033 1.0862 174.6 20.9  48d   9
2019 07 20 04  19 57 03.216   -15 22 43.83  .07032 1.0862 174.6 20.9  48d   9
2019 07 20 05  19 56 45.899   -15 23 18.60  .07030 1.0862 174.6 20.9  48d   9
2019 07 20 06  19 56 28.571   -15 23 53.33  .07028 1.0862 174.6 20.9  48d   9
2019 07 20 07  19 56 11.235   -15 24 28.01  .07027 1.0862 174.7 20.9  48d   9
2019 07 20 08  19 55 53.888   -15 25 02.64  .07025 1.0862 174.7 20.9  48d   9
2019 07 20 09  19 55 36.533   -15 25 37.24  .07024 1.0861 174.7 20.9  48d   9
2019 07 20 10  19 55 19.169   -15 26 11.78  .07023 1.0861 174.7 20.9  48d   9
2019 07 20 11  19 55 01.795   -15 26 46.28  .07021 1.0861 174.7 20.9  48d   9
2019 07 20 12  19 54 44.413   -15 27 20.74  .07020 1.0861 174.7 20.9  48d   9
2019 07 20 13  19 54 27.022   -15 27 55.14  .07018 1.0861 174.7 20.9  48d   9
2019 07 20 14  19 54 09.622   -15 28 29.50  .07017 1.0861 174.7 20.9  48d   9
2019 07 20 15  19 53 52.213   -15 29 03.82  .07015 1.0860 174.7 20.9  48d   9
2019 07 20 16  19 53 34.796   -15 29 38.08  .07014 1.0860 174.7 20.9  48d   9
2019 07 20 17  19 53 17.371   -15 30 12.30  .07013 1.0860 174.7 20.9  48d   9
2019 07 20 18  19 52 59.937   -15 30 46.47  .07011 1.0860 174.7 20.9  48d   9
2019 07 20 19  19 52 42.495   -15 31 20.59  .07010 1.0860 174.7 20.9  48d   9
2019 07 20 20  19 52 25.045   -15 31 54.66  .07009 1.0860 174.7 20.9  48d   9